Location: Spruce Knob
(38.6995°N, 79.5330°W)
Time: 16:08:57
(UTC-05:00)

SR - All Passes

Search period start: 25 January 2022 00:00
Search period end: 04 February 2022 00:00
Orbit: 582 x 872 km, 66.7° (Epoch: 24 January)

Date Brightness Start Highest point End Pass type
(mag) Time Alt. Az. Time Alt. Az. Time Alt. Az.
25 Jan - 10:05:55 10° S 10:10:00 44° ESE 10:14:02 10° NE daylight
25 Jan - 11:49:22 10° W 11:52:12 17° NW 11:55:03 10° N daylight
25 Jan - 18:47:00 10° N 18:51:01 27° NE 18:55:18 10° ESE visible
25 Jan - 20:28:38 10° NW 20:33:04 36° WSW 20:37:49 10° S visible
26 Jan - 09:17:19 10° SSE 09:20:20 19° ESE 09:23:19 10° ENE daylight
26 Jan - 10:58:08 10° WSW 11:02:03 35° NW 11:05:58 10° NNE daylight
26 Jan - 17:58:13 10° NNE 18:00:47 14° NE 18:03:27 10° E visible
26 Jan - 19:38:27 10° NNW 19:43:16 79° WSW 19:48:29 10° SSE visible
27 Jan - 10:07:48 10° SSW 10:12:05 82° WNW 10:16:20 10° NNE daylight
27 Jan - 18:48:42 10° NNW 18:53:20 50° ENE 18:58:22 10° SE visible
27 Jan - 20:31:39 10° WNW 20:35:04 19° WSW 20:38:39 10° SSW visible
28 Jan - 09:18:17 10° S 09:22:17 40° ESE 09:26:16 10° NE daylight
28 Jan - 11:01:26 10° W 11:04:26 18° NW 11:07:27 10° N daylight
28 Jan - 17:59:20 10° N 18:03:17 25° NE 18:07:28 10° ESE visible
28 Jan - 19:40:51 10° NW 19:45:22 40° WSW 19:50:15 10° S visible
29 Jan - 08:29:51 10° SSE 08:32:39 17° ESE 08:35:25 10° ENE daylight
29 Jan - 10:10:19 10° SW 10:14:18 38° WNW 10:18:17 10° NNE daylight
29 Jan - 17:10:40 10° NNE 17:13:01 13° NE 17:15:27 10° ENE daylight
29 Jan - 18:50:43 10° NNW 18:55:33 85° WSW 19:00:49 10° SSE visible
30 Jan - 09:20:05 10° SSW 09:24:21 90° ESE 09:28:37 10° NNE daylight
30 Jan - 18:01:00 10° NNW 18:05:37 46° ENE 18:10:37 10° SE visible
30 Jan - 19:43:45 10° WNW 19:47:23 21° WSW 19:51:13 10° SSW visible
31 Jan - 08:30:40 10° S 08:34:35 36° ESE 08:38:28 10° NE daylight
31 Jan - 10:13:31 10° W 10:16:40 20° NW 10:19:51 10° N daylight
31 Jan - 17:11:41 10° N 17:15:32 24° NE 17:19:38 10° ESE daylight
31 Jan - 18:53:03 10° NW 18:57:41 43° WSW 19:02:40 10° S visible
01 Feb - 07:42:25 10° SE 07:44:57 15° ESE 07:47:28 10° ENE daylight
01 Feb - 09:22:31 10° SW 09:26:33 42° WNW 09:30:36 10° NNE daylight
01 Feb - 16:23:08 10° NNE 16:25:15 13° NE 16:27:25 10° ENE daylight
01 Feb - 18:02:59 10° NNW 18:07:51 88° ENE 18:13:08 10° SSE visible
02 Feb - 08:32:22 10° SSW 08:36:38 82° ESE 08:40:53 10° NNE daylight
02 Feb - 10:18:05 10° WNW 10:19:12 11° NW 10:20:21 10° NNW daylight
02 Feb - 17:13:18 10° NNW 17:17:54 43° ENE 17:22:51 10° SE daylight
02 Feb - 18:55:52 10° WNW 18:59:42 23° WSW 19:03:45 10° SSW visible
03 Feb - 07:43:02 10° S 07:46:52 33° ESE 07:50:40 10° NE daylight
03 Feb - 09:25:36 10° WSW 09:28:54 21° NW 09:32:13 10° N daylight
03 Feb - 16:24:01 10° N 16:27:47 22° NE 16:31:46 10° ESE daylight
03 Feb - 18:05:16 10° NW 18:09:58 47° WSW 18:15:04 10° S visible
